Showing default

HORYU 2, 38340

Orbit data source: Space-Track

HORYU 2, 38340 is a payload satellite owned by Kyutech (JP) in SSO that was launched on Thu, 17 May 2012 UTC via an H-IIA 202 launch vehicle from the Tanegashima Space Center (TNSTA). Payload-class satellites include a variety of spacecraft equipped with specific instruments for various scientific and technological missions. These include communications satellites like Starlink; space stations such as the ISS; scientific satellites like the Hubble; Earth observation satellites from companies like Planet Labs, Umbra, and HawkEye 360; GPS; miniature CubeSats for education and research; and military/defense satellites.

Loading next visibility...
Identifier
38340, 2012-025D
Orbit
SSO
Country
Flag of JPJP / JPN
Related business
Manufacturer
Kyutech
Mission
Non-operational Amateur Technology
Bus & Motor
HORYU, Unknown motor
Mass
7 kg wet, 7 kg dry
Launch date (UTC)
2012-05-17 (14 years ago)
Launch vehicle
H-IIA 202
Launch site
Tanegashima Space Center (TNSTA)
Object type
Payload
Rocket body
Debris
Shape & HBR
Box, 0.1 m
Radar Cross Section
0.135 m², Medium (>0.1 m² and < 1m²)

Expand to show TLE details & history
Last TLE update: 4 hours ago

TLE from 4 hours ago
0 HORYU 2
1 38340U 12025D   26170.31955393  .00003050  00000-0  31386-3 0  9994
2 38340  98.2183 303.3429 0008477 166.9530 193.1908 14.91079256749040
Epoch: 2026-06-19T07:40Z
TLE epoch observation values (Epoch: 2026-06-19T07:40:09.459Z)
Latitude
-0.00001°
Longitude
-79.24674°
Altitude
603.352 km
Speed
7.555 km/s
True Right ascension
20h 13m 22s
True Declination
0° 00' 00"
Sunlit
Object was in full shadow at epoch
Visualization orbit readout
Latitude
Unknown
Longitude
Unknown
Altitude
Unknown
Speed
Unknown
Apparent Right ascension
Unknown
Apparent Declination
Unknown
Sunlit
N/A
Visualization observer readout
Local Sidereal Time
22:38:46
Azimuth
Unknown
Elevation
Unknown
Doppler factor
Unknown
Orbital elements
Apogee altitude
597.518 km
Perigee altitude
585.701 km
Semi-major axis
6,969.747 km
Eccentricity
0.00085
Inclination
98.2183°
RAAN
303.3429°
Arg. of periapsis
166.953°
True anomaly
193.16866°
Mean anomaly
193.1908°
Eccentric anomaly
193.17973°
Mean motion
3.73008 °/min
Orbital period
96.51 mins
BSTAR
0.00031386
Loading maneuver chart data...
Computing Atmospheric mass density...
Loading historical data...
Loading historical data...
Loading historical data...
Loading historical data...
Loading historical data...
Loading historical data...
Loading historical data...

Documentation

Showing up to 5 results
|